TimeAKST,TemperatureF,Dew PointF,Humidity,Sea Level PressureIn,VisibilityMPH,Wind Direction,Wind SpeedMPH,Gust SpeedMPH,PrecipitationIn,Events,Conditions,WindDirDegrees,DateUTC
12:53 AM,39.0,34.0,82,29.60,10.0,SSW,31.1,42.6,0.00,,Overcast,210,2012-01-07 09:53:00
1:53 AM,39.2,32.0,75,29.60,10.0,SSW,31.1,40.3,N/A,,Mostly Cloudy,210,2012-01-07 10:53:00
3:53 AM,39.0,32.0,76,29.56,10.0,SSW,13.8,23.0,N/A,,Overcast,200,2012-01-07 12:53:00
4:53 AM,37.0,33.1,86,29.51,10.0,SSW,17.3,25.3,0.00,,Overcast,200,2012-01-07 13:53:00
5:53 AM,36.0,33.1,89,29.45,10.0,Calm,Calm,-,0.00,Rain,Light Rain,0,2012-01-07 14:53:00
6:38 AM,33.8,32.0,93,29.38,5.0,NNE,3.5,-,0.01,Snow,Light Snow,20,2012-01-07 15:38:00
6:44 AM,33.8,32.0,93,29.40,2.5,Calm,Calm,-,0.02,Snow,Light Snow,0,2012-01-07 15:44:00
6:53 AM,33.1,32.0,96,29.39,2.0,Calm,Calm,-,0.03,Snow,Light Snow,0,2012-01-07 15:53:00
7:00 AM,33.8,32.0,93,29.38,1.5,Calm,Calm,-,0.01,Snow,Light Snow,0,2012-01-07 16:00:00
7:16 AM,32.0,32.0,100,29.36,1.2,Calm,Calm,-,0.03,Snow,Light Snow,0,2012-01-07 16:16:00
7:53 AM,32.0,32.0,100,29.32,1.0,Calm,Calm,-,0.09,Snow,Light Snow,0,2012-01-07 16:53:00
8:24 AM,32.0,32.0,100,29.31,1.0,Calm,Calm,-,0.03,Snow,Light Snow,0,2012-01-07 17:24:00
8:53 AM,32.0,32.0,100,29.29,1.0,Calm,Calm,-,0.08,Snow,Light Snow,0,2012-01-07 17:53:00
8:59 AM,32.0,32.0,100,29.29,0.8,Calm,Calm,-,0.02,Snow,Light Snow,0,2012-01-07 17:59:00
9:09 AM,32.0,32.0,100,29.28,1.0,Calm,Calm,-,0.03,Snow,Light Snow,0,2012-01-07 18:09:00
9:16 AM,32.0,32.0,100,29.27,2.0,Calm,Calm,-,0.03,Snow,Light Snow,0,2012-01-07 18:16:00
9:20 AM,32.0,32.0,100,29.27,3.0,Calm,Calm,-,0.03,Snow,Light Snow,0,2012-01-07 18:20:00
9:32 AM,32.0,32.0,100,29.26,2.0,Calm,Calm,-,0.04,Snow,Light Snow,0,2012-01-07 18:32:00
9:43 AM,32.0,32.0,100,29.26,1.5,Calm,Calm,-,0.05,Snow,Light Snow,0,2012-01-07 18:43:00
9:53 AM,32.0,32.0,100,29.26,1.5,Calm,Calm,-,0.06,Snow,Light Snow,0,2012-01-07 18:53:00
10:10 AM,32.0,32.0,100,29.24,1.0,Calm,Calm,-,0.02,Snow,Light Snow,0,2012-01-07 19:10:00
10:24 AM,32.0,32.0,100,29.24,0.8,Calm,Calm,-,0.03,Snow,Light Snow,0,2012-01-07 19:24:00
10:53 AM,32.0,32.0,100,29.23,0.8,Calm,Calm,-,0.06,Snow,Light Snow,0,2012-01-07 19:53:00
11:09 AM,32.0,32.0,100,29.22,0.5,Calm,Calm,-,0.01,Fog-Snow,Snow,0,2012-01-07 20:09:00
11:16 AM,32.0,32.0,100,29.22,0.5,Calm,Calm,-,0.02,Fog-Snow,Snow,0,2012-01-07 20:16:00
11:53 AM,32.0,32.0,100,29.21,0.5,Calm,Calm,-,0.04,Fog-Snow,Snow,0,2012-01-07 20:53:00
12:24 PM,32.0,32.0,100,29.19,0.2,Calm,Calm,-,0.03,Fog-Snow,Snow,0,2012-01-07 21:24:00
12:31 PM,32.0,32.0,100,29.19,0.5,Calm,Calm,-,0.03,Fog-Snow,Light Snow,0,2012-01-07 21:31:00
12:53 PM,32.0,30.9,96,29.18,0.8,Calm,Calm,-,0.04,Snow,Light Snow,0,2012-01-07 21:53:00
1:05 PM,32.0,32.0,100,29.16,1.0,Calm,Calm,-,0.01,Snow,Light Snow,0,2012-01-07 22:05:00
1:16 PM,32.0,32.0,100,29.16,0.8,Calm,Calm,-,0.01,Snow,Light Snow,0,2012-01-07 22:16:00
1:21 PM,32.0,32.0,100,29.16,1.0,Calm,Calm,-,0.02,Snow,Light Snow,0,2012-01-07 22:21:00
1:30 PM,32.0,32.0,100,29.15,0.8,Calm,Calm,-,0.03,Snow,Light Snow,0,2012-01-07 22:30:00
1:51 PM,32.0,30.2,93,29.15,0.5,Calm,Calm,-,0.05,Fog-Snow,Snow,0,2012-01-07 22:51:00
1:53 PM,32.0,30.9,96,29.16,0.5,Calm,Calm,-,0.05,Fog-Snow,Snow,0,2012-01-07 22:53:00
2:15 PM,32.0,32.0,100,29.15,0.5,Calm,Calm,-,0.03,Fog-Snow,Snow,0,2012-01-07 23:15:00
2:25 PM,32.0,30.2,93,29.15,0.2,Calm,Calm,-,0.05,Fog-Snow,Snow,0,2012-01-07 23:25:00
2:53 PM,32.0,32.0,100,29.14,0.2,Calm,Calm,-,0.11,Fog-Snow,Heavy Snow,0,2012-01-07 23:53:00
3:07 PM,32.0,32.0,100,29.14,0.5,Calm,Calm,-,0.02,Fog-Snow,Snow,0,2012-01-08 00:07:00
3:43 PM,32.0,32.0,100,29.13,1.0,Calm,Calm,-,0.10,Snow,Light Snow,0,2012-01-08 00:43:00
3:53 PM,32.0,32.0,100,29.13,1.0,Calm,Calm,-,0.11,Snow,Light Snow,0,2012-01-08 00:53:00
4:29 PM,32.0,30.2,93,29.12,1.5,NNE,9.2,-,0.05,Snow,Light Snow,30,2012-01-08 01:29:00
4:38 PM,33.8,32.0,93,29.11,3.0,ENE,12.7,19.6,0.06,Snow,Light Snow,70,2012-01-08 01:38:00
4:53 PM,34.0,33.1,96,29.12,10.0,SSW,9.2,-,0.07,Rain,Light Rain,210,2012-01-08 01:53:00
5:02 PM,35.6,33.8,93,29.11,9.0,South,20.7,27.6,0.01,Rain,Light Rain,190,2012-01-08 02:02:00
5:53 PM,39.0,34.0,82,29.11,7.0,SSW,18.4,27.6,0.05,Rain,Light Rain,200,2012-01-08 02:53:00
6:26 PM,39.2,35.6,87,29.11,10.0,South,13.8,20.7,0.02,Rain,Light Rain,190,2012-01-08 03:26:00
6:53 PM,39.9,36.0,86,29.11,10.0,SSW,16.1,26.5,0.04,Rain,Light Rain,200,2012-01-08 03:53:00
7:53 PM,42.1,37.0,82,29.10,10.0,Variable,3.5,23.0,0.01,,Overcast,0,2012-01-08 04:53:00
8:53 PM,42.1,37.0,82,29.10,10.0,SSW,12.7,19.6,0.00,,Overcast,200,2012-01-08 05:53:00
9:53 PM,42.1,37.0,82,29.10,10.0,SSW,31.1,42.6,0.02,,Overcast,200,2012-01-08 06:53:00
10:53 PM,42.1,37.0,82,29.11,10.0,SSW,32.2,46.0,0.00,,Overcast,210,2012-01-08 07:53:00
11:53 PM,43.0,35.1,74,29.11,10.0,SSW,31.1,40.3,N/A,,Mostly Cloudy,210,2012-01-08 08:53:00